Hutchinson, MN

10:16 PM CDT on April 19, 2018 (GMT -0500)
Hutchinson Municipal-Butler

Weather History for KHCD - October, 2012

Change the Weather History Date:

Saturday, October 27, 2012

  Actual Average Record
Temperature  
Mean Temperature 34 °F -  
Max Temperature 42 °F 57 °F 79 °F (1989)
Min Temperature 26 °F 34 °F 12 °F (1976)
Degree Days  
Heating Degree Days 31    
Moisture  
Dew Point 28 °F    
Average Humidity 79    
Maximum Humidity 98    
Minimum Humidity 55    
Precipitation  
Precipitation 0.00 in - - ()
Sea Level Pressure  
Sea Level Pressure 30.32 in    
Wind  
Wind Speed 4 mph (SW)    
Max Wind Speed 12 mph    
Max Gust Speed 17 mph    
Visibility 10 miles    
Events      
Averages and records for this station are not official NWS values.
T = Trace of Precipitation, MM = Missing Value Source: NWS Daily Summary

Daily Weather History Graph

Daily Weather History Graph

Search for Another Location

Airport or City:

Astronomy

Oct. 27, 2012 Rise Set
Actual Time 7:49 AM CDT 6:12 PM CDT
Civil Twilight 7:19 AM CDT 6:42 PM CDT
Nautical Twilight 6:44 AM CDT 7:16 PM CDT
Astronomical Twilight 6:11 AM CDT 7:50 PM CDT
Moon 5:01 PM CDT (10/27) 5:41 AM CDT (10/27)
Length of Visible Light 11h 23m
Length of Day
10h 22m
Waxing Gibbous, 96% of the Moon is Illuminated
Oct 27
Waxing Gibbous
Oct 29
Full
Nov 6
Last Quarter
Nov 13
New
Nov 20
First Quarter

Hourly Weather History & Observations

Time (CDT) Temp. Windchill Dew Point Humidity Pressure Visibility Wind Dir Wind Speed Gust Speed Precip Events Conditions
12:08 AM 34.0 °F 29.8 °F 30.7 °F 88% 30.33 in 10.0 mi SW 4.6 mph - N/A   Overcast
12:29 AM 34.0 °F 31.0 °F 30.2 °F 86% 30.33 in 10.0 mi SW 3.5 mph - N/A   Overcast
12:48 AM 34.0 °F 31.0 °F 30.2 °F 86% 30.33 in 10.0 mi SW 3.5 mph - N/A   Overcast
1:09 AM 34.0 °F 29.8 °F 30.0 °F 85% 30.33 in 10.0 mi SW 4.6 mph - N/A   Overcast
1:29 AM 34.0 °F 28.8 °F 29.8 °F 85% 30.33 in 10.0 mi WSW 5.8 mph - N/A   Overcast
1:49 AM 34.0 °F 28.8 °F 30.0 °F 85% 30.33 in 10.0 mi WSW 5.8 mph - N/A   Overcast
2:08 AM 34.0 °F 29.8 °F 30.2 °F 86% 30.33 in 10.0 mi SW 4.6 mph - N/A   Overcast
2:29 AM 34.0 °F 31.0 °F 30.4 °F 87% 30.32 in 10.0 mi SW 3.5 mph - N/A   Overcast
2:49 AM 34.0 °F 29.8 °F 31.1 °F 89% 30.32 in 10.0 mi SW 4.6 mph - N/A   Overcast
3:29 AM 31.8 °F - 29.3 °F 90% 30.32 in 10.0 mi Calm Calm - N/A   Overcast
3:49 AM 30.6 °F - 28.9 °F 94% 30.31 in 10.0 mi Calm Calm - N/A   Overcast
4:09 AM 30.0 °F - 28.4 °F 94% 30.31 in 10.0 mi Calm Calm - N/A   Scattered Clouds
4:29 AM 29.7 °F 26.1 °F 27.9 °F 93% 30.32 in 10.0 mi SW 3.5 mph - N/A   Clear
4:48 AM 29.3 °F - 27.5 °F 93% 30.32 in 10.0 mi Calm Calm - N/A   Clear
5:08 AM 29.3 °F - 27.7 °F 94% 30.32 in 10.0 mi Calm Calm - N/A   Clear
5:29 AM 29.3 °F - 28.0 °F 95% 30.32 in 10.0 mi Calm Calm - N/A   Clear
5:48 AM 29.3 °F 25.6 °F 28.0 °F 95% 30.33 in 10.0 mi SSW 3.5 mph - N/A   Clear
6:08 AM 29.3 °F - 27.3 °F 92% 30.33 in 10.0 mi Calm Calm - N/A   Clear
6:48 AM 26.6 °F 22.6 °F 26.1 °F 98% 30.33 in 10.0 mi SW 3.5 mph - N/A   Clear
7:09 AM 26.6 °F 22.6 °F 26.1 °F 98% 30.33 in 10.0 mi SSW 3.5 mph - N/A   Clear
7:29 AM 26.6 °F 22.6 °F 25.7 °F 96% 30.34 in 10.0 mi SSW 3.5 mph - N/A   Clear
7:49 AM 26.6 °F - 25.7 °F 96% 30.34 in 10.0 mi Calm Calm - N/A   Clear
8:09 AM 26.6 °F 22.6 °F 25.7 °F 96% 30.34 in 10.0 mi SSW 3.5 mph - N/A   Clear
8:29 AM 28.8 °F 25.0 °F 27.7 °F 96% 30.34 in 10.0 mi SW 3.5 mph - N/A   Clear
9:09 AM 30.6 °F 27.1 °F 28.4 °F 92% 30.35 in 10.0 mi SW 3.5 mph - N/A   Clear
9:29 AM 31.8 °F 27.3 °F 28.9 °F 89% 30.35 in 10.0 mi WSW 4.6 mph - N/A   Clear
9:49 AM 34.0 °F 28.8 °F 30.9 °F 89% 30.35 in 10.0 mi WSW 5.8 mph - N/A   Clear
10:29 AM 34.3 °F 31.4 °F 29.5 °F 82% 30.35 in 10.0 mi SW 3.5 mph - N/A   Clear
10:48 AM 36.5 °F 32.7 °F 30.7 °F 80% 30.35 in 10.0 mi SSW 4.6 mph - N/A   Clear
11:09 AM 36.9 °F 33.1 °F 29.5 °F 75% 30.35 in 10.0 mi SSW 4.6 mph - N/A   Clear
11:29 AM 39.2 °F 35.0 °F 29.1 °F 67% 30.35 in 10.0 mi SW 5.8 mph - N/A   Clear
11:49 AM 39.2 °F 33.6 °F 28.0 °F 64% 30.35 in 10.0 mi SW 8.1 mph - N/A   Clear
12:08 PM 40.5 °F 35.1 °F 28.6 °F 63% 30.34 in 10.0 mi SW 8.1 mph - N/A   Clear
12:28 PM 41.2 °F 35.5 °F 28.0 °F 60% 30.34 in 10.0 mi WSW 9.2 mph - N/A   Clear
12:49 PM 41.5 °F 35.0 °F 27.7 °F 58% 30.33 in 10.0 mi WSW 11.5 mph - N/A   Clear
1:09 PM 41.4 °F 35.7 °F 27.3 °F 57% 30.33 in 10.0 mi WSW 9.2 mph 17.3 mph N/A   Scattered Clouds
1:29 PM 41.5 °F 37.1 °F 27.7 °F 58% 30.32 in 10.0 mi WSW 6.9 mph - N/A   Mostly Cloudy
1:49 PM 42.6 °F 38.4 °F 27.7 °F 56% 30.32 in 10.0 mi SW 6.9 mph - N/A   Overcast
2:04 PM 42.3 °F 36.8 °F 27.1 °F 55% 30.31 in 10.0 mi West 9.2 mph - N/A   Overcast
2:29 PM 40.3 °F 34.4 °F 27.0 °F 59% 30.30 in 10.0 mi WSW 9.2 mph - N/A   Mostly Cloudy
2:43 PM 40.3 °F 36.3 °F 27.1 °F 59% 30.30 in 10.0 mi West 5.8 mph - N/A   Scattered Clouds
3:10 PM 41.0 °F 36.4 °F 26.6 °F 57% 30.29 in 10.0 mi WSW 6.9 mph - N/A   Scattered Clouds
3:30 PM 41.0 °F - 26.6 °F 57% 30.28 in 10.0 mi Calm Calm - N/A   Clear
3:50 PM 41.0 °F 38.0 °F 26.6 °F 57% 30.28 in 10.0 mi West 4.6 mph - N/A   Mostly Cloudy
4:10 PM 41.0 °F 38.0 °F 28.4 °F 61% 30.28 in 10.0 mi West 4.6 mph - N/A   Mostly Cloudy
4:18 PM 40.8 °F - 26.8 °F 57% 30.28 in 10.0 mi Calm Calm - N/A   Mostly Cloudy
4:28 PM 40.5 °F 37.3 °F 26.8 °F 58% 30.28 in 10.0 mi West 4.6 mph - N/A   Mostly Cloudy
4:48 PM 40.6 °F 38.6 °F 26.4 °F 57% 30.28 in 10.0 mi SW 3.5 mph - N/A   Mostly Cloudy
5:09 PM 40.3 °F 38.2 °F 26.8 °F 59% 30.28 in 10.0 mi SW 3.5 mph - N/A   Scattered Clouds
5:28 PM 39.6 °F 37.4 °F 26.4 °F 59% 30.28 in 10.0 mi South 3.5 mph - N/A   Clear
5:39 PM 39.2 °F 35.9 °F 27.0 °F 62% 30.28 in 10.0 mi South 4.6 mph - N/A   Clear
6:10 PM 35.6 °F - 28.4 °F 75% 30.28 in 10.0 mi Calm Calm - N/A   Clear
6:30 PM 33.8 °F - 28.4 °F 81% 30.28 in 10.0 mi Calm Calm - N/A   Clear
6:50 PM 33.8 °F - 28.4 °F 81% 30.29 in 10.0 mi Calm Calm - N/A   Clear
7:10 PM 33.8 °F - 28.4 °F 81% 30.29 in 10.0 mi Calm Calm - N/A   Clear
7:30 PM 33.8 °F - 28.4 °F 81% 30.30 in 10.0 mi Calm Calm - N/A   Clear
7:50 PM 33.8 °F - 28.4 °F 81% 30.30 in 10.0 mi Calm Calm - N/A   Clear
8:10 PM 32.0 °F - 26.6 °F 80% 30.30 in 10.0 mi Calm Calm - N/A   Clear
8:30 PM 30.2 °F - 26.6 °F 86% 30.31 in 10.0 mi Calm Calm - N/A   Scattered Clouds
8:50 PM 32.0 °F - 26.6 °F 80% 30.31 in 10.0 mi Calm Calm - N/A   Mostly Cloudy
9:10 PM 32.0 °F - 26.6 °F 80% 30.31 in 10.0 mi Calm Calm - N/A   Overcast
9:30 PM 32.0 °F - 28.4 °F 87% 30.31 in 10.0 mi Calm Calm - N/A   Overcast
9:50 PM 32.0 °F - 28.4 °F 87% 30.31 in 10.0 mi Calm Calm - N/A   Overcast
10:10 PM 32.0 °F - 28.4 °F 87% 30.31 in 10.0 mi Calm Calm - N/A   Scattered Clouds
10:30 PM 32.0 °F - 28.4 °F 87% 30.31 in 10.0 mi Calm Calm - N/A   Clear
10:50 PM 32.0 °F 28.7 °F 28.4 °F 87% 30.31 in 10.0 mi SE 3.5 mph - N/A   Clear
11:10 PM 30.2 °F 25.4 °F 26.6 °F 86% 30.30 in 10.0 mi SE 4.6 mph - N/A   Clear
11:19 PM 30.6 °F 27.1 °F 26.8 °F 86% 30.30 in 10.0 mi ESE 3.5 mph - N/A   Clear
11:48 PM 29.7 °F 26.1 °F 26.4 °F 88% 30.30 in 10.0 mi SE 3.5 mph - N/A   Clear